PD1VW-10 Weather Reports


Display with metric or nautical units.
time (UTC)temp
F
wind
direction
speed
MPH
gust
MPH
rain 1hr
in
rain 24hr
in
rain mn
in
humidity
%
barometer
mb
20260502205030 53 269 3.0 3.0 0.00 0.00 0.00 92 1015.5
20260502204047 52 268 1.0 2.0 0.00 0.00 0.00 91 1015.6
20260502203024 52 267 1.0 2.0 0.00 0.00 0.00 91 1015.7
20260502202022 53 268 1.0 2.0 0.00 0.00 0.00 90 1015.9
20260502201039 53 270 3.0 4.0 0.00 0.00 0.00 90 1015.8
20260502200017 53 271 2.0 3.0 0.00 0.00 0.00 89 1015.8
20260502195044 54 272 3.0 4.0 0.00 0.00 0.00 89 1016.0
20260502194041 54 275 4.0 6.0 0.00 0.00 0.00 88 1016.1
20260502193038 54 275 1.0 2.0 0.00 0.00 0.00 88 1016.2
20260502192036 55 280 2.0 3.0 0.00 0.00 0.00 87 1016.2
20260502191033 56 286 3.0 3.0 0.00 0.00 0.00 87 1016.2
20260502190030 56 291 4.0 6.0 0.00 0.00 0.00 85 1016.3
20260502185028 57 292 5.0 6.0 0.00 0.00 0.00 84 1016.1
20260502184025 58 296 4.0 4.0 0.00 0.00 0.00 82 1016.1
20260502183022 59 332 6.0 8.0 0.00 0.00 0.00 80 1016.2
20260502182020 60 0 6.0 8.0 0.00 0.00 0.00 78 1016.1
20260502181017 61 15 6.0 7.0 0.00 0.00 0.00 76 1016.2
20260502180144 62 25 5.0 6.0 0.00 0.00 0.00 70 1016.3
20260502164023 65 304 5.0 8.0 0.00 0.00 0.00 50 1017.2
20260502163020 65 260 5.0 7.0 0.00 0.00 0.00 50 1017.4
20260502162018 65 262 4.0 6.0 0.00 0.00 0.00 53 1017.5
20260502161045 64 281 3.0 6.0 0.00 0.00 0.00 55 1017.3
20260502152051 66 254 7.0 9.0 0.00 0.00 0.00 48 1017.7
20260502151029 67 231 5.0 7.0 0.00 0.00 0.00 48 1017.6
20260502140120 65 233 8.0 14.0 0.00 0.00 0.00 55 1018.4
20260502123015 65 176 7.0 14.0 0.00 0.00 0.00 75 1018.8
20260502122043 66 217 13.0 17.0 0.00 0.00 0.00 73 1018.7
20260502121040 66 242 7.0 11.0 0.00 0.00 0.00 74 1018.8
20260502115035 66 218 6.0 7.0 0.00 0.00 0.00 75 1018.8
20260502114032 65 296 7.0 11.0 0.00 0.00 0.00 76 1019.0
20260502113029 65 223 9.0 13.0 0.00 0.00 0.00 76 1019.0
20260502112026 66 278 8.0 11.0 0.00 0.00 0.00 76 1019.0
20260502111043 67 226 10.0 16.0 0.00 0.00 0.00 76 1019.1
20260502110021 66 233 5.0 9.0 0.00 0.00 0.00 78 1019.0
20260502105018 65 223 3.0 6.0 0.00 0.00 0.00 79 1018.9
20260502104016 66 193 5.0 9.0 0.00 0.00 0.00 78 1019.2
20260502103143 66 230 5.0 8.0 0.00 0.00 0.00 78 1019.0
20260502102120 65 212 8.0 11.0 0.00 0.00 0.00 77 1019.2
20260502101038 65 226 5.0 10.0 0.00 0.00 0.00 79 1019.1
20260502091021 62 221 5.0 7.0 0.00 0.00 0.00 80 1019.3
20260502071019 58 173 2.0 2.0 0.00 0.00 0.00 79 1019.4
20260502070016 57 140 3.0 4.0 0.00 0.00 0.00 78 1019.5
20260502065044 56 162 4.0 4.0 0.00 0.00 0.00 78 1019.6
20260502064101 56 158 3.0 4.0 0.00 0.00 0.00 77 1019.6
20260502063038 56 176 2.0 3.0 0.00 0.00 0.00 77 1019.7
20260502062036 55 166 4.0 4.0 0.00 0.00 0.00 75 1019.5
20260502061033 54 195 2.0 2.0 0.00 0.00 0.00 76 1019.6
20260502060030 55 187 2.0 3.0 0.00 0.00 0.00 74 1019.4
20260502055027 54 179 4.0 4.0 0.00 0.00 0.00 72 1019.2
20260502054024 53 191 2.0 3.0 0.00 0.00 0.00 72 1019.2
20260502053101 53 180 1.0 2.0 0.00 0.00 0.00 72 1019.0
20260502052019 53 237 2.0 3.0 0.00 0.00 0.00 73 1019.3
20260502051016 51 252 2.0 2.0 0.00 0.00 0.00 74 1019.4
20260502050043 50 262 2.0 3.0 0.00 0.00 0.00 77 1019.5
20260502045041 50 267 0.0 1.0 0.00 0.00 0.00 78 1019.3
20260502044038 50 0.0 0.0 0.00 0.00 0.00 79 1019.3
20260502043035 49 0.0 0.0 0.00 0.00 0.00 78 1019.3
20260502042032 50 266 1.0 2.0 0.00 0.00 0.00 77 1019.2
20260502041029 50 266 1.0 2.0 0.00 0.00 0.00 76 1019.1
20260502040027 50 266 0.0 1.0 0.00 0.00 0.00 77 1019.4
20260502035024 50 266 0.0 1.0 0.00 0.00 0.00 77 1019.5
20260502034021 50 266 1.0 1.0 0.00 0.00 0.00 77 1019.4
20260502033019 51 0.0 0.0 0.00 0.00 0.00 75 1019.6
20260502032016 51 0.0 0.0 0.00 0.00 0.00 75 1019.7
20260502031043 51 266 2.0 2.0 0.00 0.00 0.00 75 1019.5
20260502030040 50 266 1.0 1.0 0.00 0.00 0.00 76 1019.6
20260502025037 50 266 1.0 1.0 0.00 0.00 0.00 75 1019.8
20260502024035 51 266 2.0 3.0 0.00 0.00 0.00 74 1019.7
20260502023032 51 266 2.0 2.0 0.00 0.00 0.00 74 1019.9
20260502022030 51 266 1.0 1.0 0.00 0.00 0.00 73 1019.7
20260502021027 51 266 1.0 2.0 0.00 0.00 0.00 72 1019.8
20260502020024 51 266 0.0 1.0 0.00 0.00 0.00 72 1019.8
20260502015022 51 266 1.0 1.0 0.00 0.00 0.00 71 1020.0
20260502014019 52 266 1.0 1.0 0.00 0.00 0.00 70 1020.1
20260502013016 52 266 0.0 1.0 0.00 0.00 0.00 70 1020.1
20260502012044 52 266 1.0 1.0 0.00 0.00 0.00 69 1020.2
20260502011101 53 266 1.0 1.0 0.00 0.00 0.00 68 1020.3
20260502010038 53 266 1.0 1.0 0.00 0.00 0.00 67 1020.5
20260502005055 53 266 1.0 1.0 0.00 0.00 0.00 68 1020.5
20260502004032 54 266 1.0 2.0 0.00 0.00 0.00 65 1020.6
20260502003030 54 266 1.0 2.0 0.00 0.00 0.00 65 1020.6
20260502002027 55 266 1.0 2.0 0.00 0.00 0.00 64 1020.7
20260502001025 55 266 0.0 1.0 0.00 0.00 0.00 66 1020.9
20260502000042 55 266 1.0 1.0 0.00 0.00 0.00 66 1020.8
20260501235019 55 266 0.0 1.0 0.00 0.00 0.00 67 1021.1
20260501234016 55 266 1.0 2.0 0.00 0.00 0.00 67 1021.0
20260501233044 55 266 0.0 1.0 0.00 0.00 0.00 67 1021.0
20260501232042 55 266 2.0 2.0 0.00 0.00 0.00 67 1021.3
20260501231039 56 266 1.0 1.0 0.00 0.00 0.00 67 1021.4
20260501230036 56 266 2.0 2.0 0.00 0.00 0.00 66 1021.4
20260501225033 55 266 1.0 2.0 0.00 0.00 0.00 70 1021.6
20260501224031 56 266 2.0 2.0 0.00 0.00 0.00 68 1021.5
20260501223028 56 266 2.0 2.0 0.00 0.00 0.00 68 1021.6
20260501222026 56 266 3.0 4.0 0.00 0.00 0.00 67 1021.5
20260501221043 56 264 2.0 2.0 0.00 0.00 0.00 70 1021.6
20260501220020 56 264 2.0 2.0 0.00 0.00 0.00 70 1021.9
20260501215017 58 259 1.0 2.0 0.00 0.00 0.00 66 1021.7
20260501214045 59 256 1.0 2.0 0.00 0.00 0.00 63 1021.8
20260501213042 59 256 1.0 2.0 0.00 0.00 0.00 63 1021.8
20260501212040 59 257 1.0 2.0 0.00 0.00 0.00 67 1021.9
20260501211037 58 0.0 0.0 0.00 0.00 0.00 69 1022.0
20260501210054 58 0.0 0.0 0.00 0.00 0.00 69 1022.2